Weather History for Cork, Ireland

Change the Weather History Date:

Monday, October 8, 2012

  Actual Average Record
Temperature  
Mean Temperature 52 °F -  
Max Temperature 53 °F 54 °F 64 °F (2003)
Min Temperature 50 °F 44 °F 41 °F (2005)
Degree Days  
Heating Degree Days 14    
Growing Degree Days 2 (Base 50)    
Moisture  
Dew Point 52 °F    
Average Humidity 99    
Maximum Humidity 100    
Minimum Humidity 94    
Precipitation  
Precipitation 0.31 in 0.16 in - ()
Sea Level Pressure  
Sea Level Pressure 29.90 in    
Wind  
Wind Speed 15 mph ()    
Max Wind Speed 24 mph    
Max Gust Speed -    
Visibility 3.6 miles    
Events Fog , Rain    
Averages and records for this station are not official NWS values.
T = Trace of Precipitation, MM = Missing Value Source: Averaged Metar Reports

Daily Weather History Graph

Daily Weather History Graph

Search for Another Location

Airport:

Trip Planner

Search our weather history database for the weather conditions in past years. The results will help you decide how hot, cold, wet, or windy it might be!

Date:

Astronomy

Oct. 08, 2012 Rise Set
Actual Time 7:47 AM IST 6:54 PM IST
Civil Twilight 7:13 AM IST 7:28 PM IST
Nautical Twilight 6:34 AM IST 8:07 PM IST
Astronomical Twilight 5:54 AM IST 8:46 PM IST
Moon No Moon Rise 3:20 PM IST (10/8)
Length of Visible Light 12h 14m
Length of Day
11h 07m
Waning Gibbous, 48% of the Moon is Illuminated
Oct 8
Waning Gibbous
Oct 15
New
Oct 22
First Quarter
Oct 29
Full
Nov 7
Last Quarter

Hourly Weather History & Observations

Time (IST) Temp. Dew Point Humidity Pressure Visibility Wind Dir Wind Speed Gust Speed Precip Events Conditions
12:00 AM 50.0 °F 50.0 °F 100% 29.95 in 1.6 mi East 20.7 mph - N/A Rain Light Rain
12:30 AM 51.8 °F 51.8 °F 100% 29.92 in 1.1 mi East 21.9 mph - N/A Rain Light Rain
1:00 AM 51 °F 51 °F 100% 29.94 in 1 mi East 22.4 mph - - Rain Light Rain
1:00 AM 51.8 °F 51.8 °F 100% 29.92 in 1.1 mi East 21.9 mph - N/A Rain Light Rain
1:30 AM 51.8 °F 51.8 °F 100% 29.92 in 1.1 mi East 19.6 mph - N/A Rain Light Rain
2:00 AM 51.8 °F 51.8 °F 100% 29.89 in 1.0 mi East 24.2 mph - N/A Rain Light Rain
2:30 AM 51.8 °F 51.8 °F 100% 29.89 in 1.9 mi East 19.6 mph - N/A Rain Light Rain
3:00 AM 51.8 °F 51.8 °F 100% 29.89 in 1.0 mi East 19.6 mph - N/A Rain Light Rain
3:30 AM 51.8 °F 51.8 °F 100% 29.89 in 1.0 mi East 18.4 mph - N/A Rain Light Rain
4:00 AM 53.6 °F 53.6 °F 100% 29.89 in 1.0 mi East 17.3 mph - N/A Rain Light Rain
4:30 AM - - N/A% 29.86 in 0.3 mi East 15.0 mph - N/A   Overcast
5:00 AM 53.6 °F 53.6 °F 100% 29.86 in 1.6 mi East 16.1 mph - N/A Rain Light Rain
5:30 AM 53.6 °F 53.6 °F 100% 29.86 in 0.3 mi East 16.1 mph - N/A Fog , Rain Light Rain
6:00 AM 53.6 °F 53.6 °F 100% 29.86 in 1.1 mi East 16.1 mph - N/A Rain Light Rain
6:30 AM 53.6 °F 53.6 °F 100% 29.86 in 1.1 mi East 16.1 mph - N/A Rain Light Rain
7:00 AM 53 °F 53 °F 100% 29.87 in 1 mi East 15.7 mph - - Rain Light Rain
7:00 AM 53.6 °F 53.6 °F 100% 29.86 in 1.0 mi East 16.1 mph - N/A Rain Light Rain
7:30 AM 53.6 °F 53.6 °F 100% 29.86 in 1.0 mi East 16.1 mph - N/A Rain Light Rain
8:00 AM 53.6 °F 53.6 °F 100% 29.86 in 1.2 mi East 15.0 mph - N/A Rain Light Rain
8:30 AM 51.8 °F 51.8 °F 100% 29.86 in 1.6 mi East 15.0 mph - N/A Rain Light Rain
9:00 AM 51.8 °F 51.8 °F 100% 29.89 in 2.5 mi East 15.0 mph - N/A   Light Drizzle
9:30 AM 51.8 °F 51.8 °F 100% 29.89 in 2.5 mi East 15.0 mph - N/A   Light Drizzle
10:00 AM 51.8 °F 51.8 °F 100% 29.89 in 5.6 mi East 16.1 mph - N/A   Light Drizzle
10:30 AM 51.8 °F 51.8 °F 100% 29.89 in 5.6 mi East 16.1 mph - N/A   Overcast
11:00 AM 51.8 °F 51.8 °F 100% 29.89 in 6.2 mi ENE 13.8 mph - N/A   Light Drizzle
11:30 AM 51.8 °F 51.8 °F 100% 29.89 in 6.2 mi East 13.8 mph - N/A   Overcast
12:00 PM 51.8 °F 51.8 °F 100% 29.89 in 4.3 mi East 13.8 mph - N/A   Light Drizzle
12:30 PM 51.8 °F 51.8 °F 100% 29.89 in 5.0 mi East 13.8 mph - N/A   Light Drizzle
1:00 PM 52 °F 52 °F 100% 29.92 in 4 mi ENE 15.7 mph - - Rain Light Drizzle
1:00 PM 51.8 °F 51.8 °F 100% 29.89 in 3.7 mi ENE 15.0 mph - N/A   Light Drizzle
1:30 PM 51.8 °F 51.8 °F 100% 29.89 in 3.7 mi ENE 13.8 mph - N/A   Light Drizzle
2:00 PM 51.8 °F 51.8 °F 100% 29.92 in 2.5 mi ENE 12.7 mph - N/A   Light Drizzle
2:30 PM 51.8 °F 51.8 °F 100% 29.89 in 1.9 mi ENE 13.8 mph - N/A Rain Light Rain
3:00 PM 51.8 °F 51.8 °F 100% 29.89 in 2.5 mi East 13.8 mph - N/A Rain Light Rain
3:30 PM 51.8 °F 51.8 °F 100% 29.89 in 1.6 mi East 12.7 mph - N/A Rain Light Rain
4:00 PM 51.8 °F 51.8 °F 100% 29.89 in 3.7 mi ENE 11.5 mph - N/A Rain Light Rain
4:30 PM 51.8 °F 51.8 °F 100% 29.89 in 5.6 mi ENE 13.8 mph - N/A   Light Drizzle
5:00 PM 51.8 °F 51.8 °F 100% 29.92 in 6.2 mi ENE 11.5 mph - N/A   Overcast
5:30 PM 51.8 °F 51.8 °F 100% 29.92 in 6.2 mi ENE 13.8 mph - N/A   Mostly Cloudy
6:00 PM 51.8 °F 51.8 °F 100% 29.92 in 6.2 mi East 12.7 mph - N/A   Mostly Cloudy
6:30 PM 51.8 °F 51.8 °F 100% 29.92 in 6.2 mi East 12.7 mph - N/A   Mostly Cloudy
7:00 PM 51 °F 51 °F 100% 29.94 in 12 mi ENE 11.2 mph - -   Partly Cloudy
7:00 PM 51.8 °F 51.8 °F 100% 29.92 in 6.2 mi ENE 10.4 mph - N/A   Mostly Cloudy
7:30 PM 51.8 °F 50.0 °F 94% 29.92 in 6.2 mi ENE 10.4 mph - N/A   Mostly Cloudy
8:00 PM 50.0 °F 50.0 °F 100% 29.95 in 6.2 mi East 8.1 mph - N/A   Overcast
8:30 PM 51.8 °F 50.0 °F 94% 29.95 in 6.2 mi ENE 8.1 mph - N/A   Overcast
9:00 PM 51.8 °F 50.0 °F 94% 29.95 in 6.2 mi East 8.1 mph - N/A   Overcast
9:30 PM 51.8 °F 50.0 °F 94% 29.95 in 6.2 mi East 10.4 mph - N/A   Overcast
10:00 PM 51.8 °F 50.0 °F 94% 29.95 in 6.2 mi ENE 11.5 mph - N/A   Overcast
10:30 PM 51.8 °F 50.0 °F 94% 29.95 in 6.2 mi NE 10.4 mph - N/A   Overcast
11:00 PM 51.8 °F 50.0 °F 94% 29.95 in 5.6 mi ENE 9.2 mph - N/A   Overcast
11:30 PM 51.8 °F 50.0 °F 94% 29.95 in 5.6 mi East 9.2 mph - N/A   Overcast